EKBI

Billund

Airport
ICAO code
EKBI
Summary
ICAO Region
EUR
ICAO Territory
Location

Billund,

Elevation
247 ft
Coordinates
55° 44' 25" N , 9° 9' 6" E
KCC
Metar
Observation
EKBI 070550Z AUTO 17004KT 140V200 2700 BR OVC002/// 00/00 Q1039
Station
Billund Lufthavn
Date/Time
2023-02-07 05:50:00
Wind direction
170°
Wind speed
04 kts
Lowest cloud amount
overcast
Temperature
0°C
Dew point
0°C
Humidity
100%
QNH
1039 hPa
Weather condition
n/a

Description

Billund Airport located 1 nm northeast of Billund, Denmark.

Climatology

Temperate Marine climate/Oceanic climate (Köppen climate classification Cfb). Moderately cool summer and comparatively warm winter with a temperature range of only 14°C. Prevailing south-westerly winds from the Atlantic Ocean.

Runways

Designator Length Width Surface Rops
9/27 3100 45 ASP Yes/Yes

SKYbrary Partners:

Safety knowledge contributed by: